Weather in Abrau-Dyurso

Russia / Krasnodar Krai     44°42′05″N   37°36′01″E
temp.,
°C
wind,
m/s
gust,
m/s
humid.,
%
clouds,
%
prec.,
mm/h
press.,
hPa
HPBL,
m
4 december, sat
sat400:00+11s71477100 0.0 1017456
03:00+11sse61280100 0.1 1017440
06:00+12sse61178100 0.0 1015408
09:00+12s5976100 0.0 1016382
12:00+13sse4972100 0.0 1015626
15:00+13sse61076100 0.0 1013669
18:00+11se61087100 0.0 1012420
21:00+11sse5889100 0.0 1012289
5 december, sun
sun500:00+11sse4682100 0.0 1011198
03:00+11sse3582100 0.0 1011186
06:00+11sse478299 0.0 1011279
09:00+11s6987100 0.1 1012435
12:00+12ssw6108492 0.6 1012867
15:00+12ssw8128511 1.0 1012990
18:00+11sw578977 0.1 1014453
21:00+10sw358915 0.1 1015169
6 december, mon
mon600:00+10ssw2486100 0.0 1015132
03:00+10sse2385100 0.0 101692
06:00+11se359292 0.0 1016171
09:00+12se489370 0.0 1016386
12:00+13se51079100 0.0 1016599
15:00+13se611765 0.0 1016599
18:00+12se598916 0.0 1016250
21:00+11se578660 0.0 1016148
7 december, tue
tue700:00+11se588451 0.0 1016145
03:00+11se578241 0.0 1015114
06:00+11ese57787 0.0 1014110
09:00+12se611779 0.0 1013289
12:00+14se71568100 0.0 1011551
15:00+14se61268100 0.0 1009456
18:00+12ese6107298 0.0 1008231
21:00+12ese512662 0.0 1006265
8 december, wed
wed800:00+12ese610770 0.0 1006215
03:00+12ese610855 0.0 1006238
06:00+11ese588688 0.0 1005139
09:00+12sse61481100 0.0 1007732
12:00+14sw61458100 0.0 1005675
15:00+13se4669100 0.0 1006355
18:00+12se4576100 0.1 100789
21:00+11sse338499 0.3 100958